#timestamp,LO_Frequency,Hit,StdDev 
1598972495.1,286047009.3,P
1598972515.9,286047009.3,P
1598972535.7,286047009.3,P
1598972555.5,286047012.0,Y
1598972575.4,286047002.2,P
1598972595.2,286047001.8,N
1598972615.1,286047002.3,N
1598972616.0,286047002.3,N
1598972635.8,286047001.7,N
1598972655.6,286047002.5,N
1598972675.5,286047001.6,N
1598972695.3,286047001.4,N
1598972715.1,286047004.0,N
1598972735.9,286047003.8,N
1598972755.7,286047001.8,N
1598972775.6,286047005.6,N
1598972795.4,286047003.8,N
1598972815.2,286047003.5,N
1598972835.1,286047005.6,N
1598972836.0,286047005.6,N
1598972855.8,286047004.9,N
1598972875.6,286047004.8,N
1598972895.5,286047004.9,N
1598972915.3,286047005.1,N
1598972935.2,286047005.2,N
1598972955.9,286047005.0,N
1598972975.7,286047004.7,N
1598972995.6,286047005.3,N
1598973015.4,286047004.7,N
1598973035.2,286047007.4,Y
1598973055.1,286047002.5,P
1598973056.0,286047002.5,P
1598973075.8,286046999.7,N
1598973095.7,286047004.3,N
1598973115.5,286047001.8,N
1598973135.3,286047001.9,N
1598973155.2,286047001.7,N
1598973175.0,286047002.0,N
1598973175.9,286047002.0,N
1598973195.7,286047002.2,N
1598973215.6,286047002.1,N
1598973235.4,286047004.0,Y
1598973255.3,286047000.5,P
1598973275.1,286047000.8,N
1598973276.0,286047000.8,N
1598973295.8,286046999.9,N
1598973315.7,286047002.3,N
1598973335.5,286046999.7,N
1598973355.3,286046999.9,N
1598973375.2,286047002.4,N
1598973395.0,286047002.3,N
1598973395.9,286047002.3,N
1598973415.8,286047002.1,N
1598973435.6,286047002.1,N
1598973455.4,286047001.6,N
1598973475.3,286047002.3,N
1598973495.1,286047001.3,N
1598973515.9,286047004.4,Y
1598973535.7,286047002.2,P
1598973555.5,286047002.6,P
1598973575.4,286047001.7,P
1598973595.2,286047002.6,Y
1598973615.0,286047001.0,P
1598973615.9,286047001.0,N
1598973635.8,286047000.4,N
1598973655.6,286046999.9,N
1598973675.5,286047000.9,N
1598973695.3,286047002.4,Y
1598973715.1,286046998.1,P
1598973735.9,286047001.1,N
1598973755.7,286047001.2,N
1598973775.5,286047001.1,N
1598973795.4,286047001.1,N
1598973815.2,286047000.5,N
1598973835.1,286047000.4,N
1598973836.0,286047000.4,N
1598973855.8,286046998.6,N
1598973875.6,286047001.0,N
1598973895.5,286047000.5,N
1598973915.3,286046998.2,N
1598973935.1,286046999.9,N
1598973955.9,286046999.9,N
1598973975.7,286046999.7,N
1598973995.6,286047001.7,N
1598974015.4,286047002.5,N
1598974035.2,286047002.5,N
1598974055.1,286047001.5,N
1598974056.0,286047001.5,N
1598974075.8,286047004.4,Y
1598974095.7,286047003.1,P
1598974115.5,286047001.3,N
1598974135.3,286047002.5,N
1598974155.2,286047002.2,N
1598974175.0,286047004.4,Y
1598974175.9,286047004.4,P
1598974195.7,286047002.3,N
1598974215.6,286046999.7,N
1598974235.4,286047002.7,N
1598974255.3,286047004.4,N
1598974275.1,286047001.5,N
1598974276.0,286047001.5,N
1598974295.8,286047000.1,N
1598974315.7,286047000.7,N
1598974335.5,286047000.2,N
1598974355.3,286047001.9,N
1598974375.2,286047001.8,N
1598974395.0,286047001.9,N
1598974395.9,286047001.9,N
1598974415.8,286047002.0,N
1598974435.6,286047001.4,N
1598974455.4,286047004.4,Y
1598974475.3,286047000.2,P
1598974495.1,286047000.2,N
1598974515.9,286046999.9,N
1598974535.7,286046999.7,N
1598974555.5,286047002.6,Y
1598974575.4,286047001.0,P
1598974595.2,286047001.6,P
1598974615.0,286047001.5,N
1598974615.9,286047001.5,N
1598974635.8,286047001.6,Y
1598974655.6,286046999.8,P
1598974675.5,286046999.7,N
1598974695.3,286047000.5,N
1598974715.1,286047000.0,N
1598974735.9,286047002.3,Y
1598974755.7,286047002.1,P
1598974775.6,286047002.1,N
1598974795.4,286047004.4,P
1598974815.2,286047002.2,N
1598974835.1,286047002.5,N
1598974836.0,286047002.5,N
1598974855.8,286047004.3,Y
1598974875.6,286047000.4,P
1598974895.5,286047001.0,N
1598974915.3,286047002.5,P
1598974935.2,286047002.7,Y
1598974955.9,286046998.8,P
1598974975.7,286047000.7,N
1598974995.6,286046998.2,N
1598975015.4,286047000.0,N
1598975035.2,286047000.3,N
1598975055.1,286047002.7,N
1598975056.0,286047002.7,N
1598975075.8,286047000.9,N
1598975095.7,286046999.7,N
1598975115.5,286046999.7,N
1598975135.3,286046999.9,N
1598975155.2,286047001.9,N
1598975175.0,286047002.6,N
1598975175